| time (UTC) | temp F | wind direction | speed knots | gust knots | rain 1hr in | rain 24hr in | rain mn in | humidity % | barometer mb |
| 20260504081500 | 62 | 215 | 1.7 | 3.5 | 0.00 | 0.00 | 0.00 | 68 | 1015.5 |
| 20260504080458 | 62 | 217 | 1.7 | 3.5 | 0.00 | 0.00 | 0.00 | 68 | 1015.6 |
| 20260504050422 | 51 | 226 | 1.7 | 3.5 | 0.00 | 0.00 | 0.00 | 77 | 1015.4 |
| 20260504045440 | 51 | 227 | 0.9 | 2.6 | 0.00 | 0.00 | 0.00 | 77 | 1015.4 |
| 20260504044418 | 51 | 191 | 0.9 | 1.7 | 0.00 | 0.00 | 0.00 | 77 | 1015.4 |
| 20260504043416 | 51 | 240 | 1.7 | 3.5 | 0.00 | 0.00 | 0.00 | 77 | 1015.4 |
| 20260504042414 | 51 | 242 | 1.7 | 2.6 | 0.00 | 0.00 | 0.00 | 75 | 1015.4 |
| 20260504041412 | 51 | 238 | 1.7 | 2.6 | 0.00 | 0.00 | 0.00 | 74 | 1015.4 |
| 20260504040411 | 52 | 230 | 1.7 | 3.5 | 0.00 | 0.00 | 0.00 | 74 | 1015.3 |
| 20260504035408 | 52 | 231 | 0.9 | 1.7 | 0.00 | 0.00 | 0.00 | 74 | 1015.4 |
| 20260504034406 | 52 | 270 | 1.7 | 3.5 | 0.00 | 0.00 | 0.00 | 73 | 1015.5 |
| 20260504033425 | 52 | 225 | 0.9 | 2.6 | 0.00 | 0.00 | 0.00 | 72 | 1015.5 |
| 20260504032402 | 52 | 225 | 0.9 | 2.6 | 0.00 | 0.00 | 0.00 | 71 | 1015.6 |
| 20260504031359 | 52 | 270 | 1.7 | 3.5 | 0.00 | 0.00 | 0.00 | 68 | 1015.6 |
| 20260504030358 | 53 | 180 | 0.9 | 1.7 | 0.00 | 0.00 | 0.00 | 67 | 1015.6 |
| 20260504025356 | 53 | 243 | 1.7 | 2.6 | 0.00 | 0.00 | 0.00 | 69 | 1015.7 |
| 20260504024354 | 54 | 238 | 1.7 | 3.5 | 0.00 | 0.00 | 0.00 | 67 | 1015.8 |
| 20260504023352 | 54 | 248 | 1.7 | 2.6 | 0.00 | 0.00 | 0.00 | 66 | 1015.8 |
| 20260504022350 | 54 | 247 | 1.7 | 3.5 | 0.00 | 0.00 | 0.00 | 65 | 1015.9 |
| 20260504021349 | 55 | 230 | 1.7 | 3.5 | 0.00 | 0.00 | 0.00 | 65 | 1015.9 |
| 20260504020346 | 55 | 229 | 1.7 | 3.5 | 0.00 | 0.00 | 0.00 | 64 | 1016.0 |
| 20260504015344 | 55 | 239 | 1.7 | 3.5 | 0.00 | 0.00 | 0.00 | 63 | 1015.9 |
| 20260504014341 | 56 | 226 | 1.7 | 3.5 | 0.00 | 0.00 | 0.00 | 63 | 1015.9 |
| 20260504013341 | 56 | 244 | 1.7 | 3.5 | 0.00 | 0.00 | 0.00 | 62 | 1015.9 |
| 20260504012439 | 57 | 231 | 1.7 | 3.5 | 0.00 | 0.00 | 0.00 | 61 | 1016.0 |
| 20260504011336 | 57 | 240 | 1.7 | 3.5 | 0.00 | 0.00 | 0.00 | 59 | 1016.0 |
| 20260504010335 | 58 | 235 | 1.7 | 2.6 | 0.00 | 0.00 | 0.00 | 58 | 1016.2 |
| 20260504005332 | 58 | 226 | 1.7 | 3.5 | 0.00 | 0.00 | 0.00 | 57 | 1016.2 |
| 20260504004330 | 58 | 225 | 0.9 | 2.6 | 0.00 | 0.00 | 0.00 | 57 | 1016.0 |
| 20260504003328 | 59 | 207 | 0.9 | 2.6 | 0.00 | 0.00 | 0.00 | 56 | 1016.3 |
| 20260504002327 | 59 | 220 | 0.9 | 2.6 | 0.00 | 0.00 | 0.00 | 56 | 1016.3 |
| 20260504001324 | 59 | 188 | 0.9 | 1.7 | 0.00 | 0.00 | 0.00 | 56 | 1016.4 |
| 20260504000322 | 59 | 206 | 0.9 | 3.5 | 0.00 | 0.00 | 0.00 | 56 | 1016.5 |
| 20260503235320 | 59 | 203 | 1.7 | 3.5 | 0.00 | 0.00 | 0.00 | 56 | 1016.5 |
| 20260503234318 | 59 | 225 | 0.9 | 2.6 | 0.00 | 0.00 | 0.00 | 56 | 1016.5 |
| 20260503233336 | 59 | 226 | 1.7 | 3.5 | 0.00 | 0.00 | 0.00 | 55 | 1016.6 |
| 20260503232314 | 60 | 225 | 0.9 | 2.6 | 0.00 | 0.00 | 0.00 | 55 | 1016.6 |
| 20260503231312 | 60 | 211 | 0.9 | 2.6 | 0.00 | 0.00 | 0.00 | 55 | 1016.6 |
| 20260503230310 | 60 | 216 | 0.9 | 2.6 | 0.00 | 0.00 | 0.00 | 55 | 1016.6 |
| 20260503225308 | 60 | 198 | 0.9 | 3.5 | 0.00 | 0.00 | 0.00 | 55 | 1016.6 |
| 20260503224306 | 60 | 192 | 0.9 | 2.6 | 0.00 | 0.00 | 0.00 | 54 | 1016.6 |
| 20260503223304 | 60 | 214 | 1.7 | 4.3 | 0.00 | 0.00 | 0.00 | 53 | 1016.5 |
| 20260503222304 | 60 | 161 | 0.9 | 3.5 | 0.00 | 0.00 | 0.00 | 53 | 1016.4 |
| 20260503221300 | 60 | 220 | 1.7 | 3.5 | 0.00 | 0.00 | 0.00 | 52 | 1016.3 |
| 20260503220258 | 61 | 220 | 1.7 | 3.5 | 0.00 | 0.00 | 0.00 | 52 | 1016.2 |
| 20260503215256 | 61 | 220 | 1.7 | 4.3 | 0.00 | 0.00 | 0.00 | 52 | 1016.0 |
| 20260503214255 | 61 | 222 | 1.7 | 4.3 | 0.00 | 0.00 | 0.00 | 51 | 1016.0 |
| 20260503213252 | 61 | 221 | 1.7 | 5.2 | 0.00 | 0.00 | 0.00 | 50 | 1015.8 |
| 20260503212250 | 62 | 219 | 1.7 | 5.2 | 0.00 | 0.00 | 0.00 | 49 | 1015.7 |
| 20260503211308 | 62 | 231 | 1.7 | 5.2 | 0.00 | 0.00 | 0.00 | 48 | 1015.6 |
| 20260503210246 | 62 | 225 | 1.7 | 5.2 | 0.00 | 0.00 | 0.00 | 48 | 1015.5 |
| 20260503205244 | 62 | 221 | 2.6 | 5.2 | 0.00 | 0.00 | 0.00 | 47 | 1015.4 |
| 20260503204242 | 62 | 223 | 2.6 | 6.1 | 0.00 | 0.00 | 0.00 | 46 | 1015.3 |
| 20260503203240 | 62 | 225 | 1.7 | 3.5 | 0.00 | 0.00 | 0.00 | 45 | 1015.2 |
| 20260503202238 | 63 | 223 | 1.7 | 5.2 | 0.00 | 0.00 | 0.00 | 45 | 1015.2 |
| 20260503201237 | 63 | 220 | 1.7 | 5.2 | 0.00 | 0.00 | 0.00 | 44 | 1015.2 |
| 20260503200234 | 64 | 201 | 1.7 | 4.3 | 0.00 | 0.00 | 0.00 | 44 | 1015.0 |
| 20260503195312 | 65 | 222 | 3.5 | 6.1 | 0.00 | 0.00 | 0.00 | 42 | 1014.9 |
| 20260503194230 | 65 | 220 | 2.6 | 5.2 | 0.00 | 0.00 | 0.00 | 39 | 1014.7 |
| 20260503193229 | 66 | 220 | 1.7 | 4.3 | 0.00 | 0.00 | 0.00 | 38 | 1014.5 |
| 20260503192226 | 67 | 232 | 1.7 | 3.5 | 0.00 | 0.00 | 0.00 | 37 | 1014.4 |
| 20260503191224 | 67 | 216 | 1.7 | 3.5 | 0.00 | 0.00 | 0.00 | 36 | 1014.3 |
| 20260503190221 | 67 | 223 | 1.7 | 3.5 | 0.00 | 0.00 | 0.00 | 37 | 1014.2 |
| 20260503185240 | 68 | 214 | 1.7 | 3.5 | 0.00 | 0.00 | 0.00 | 36 | 1014.1 |
| 20260503184218 | 69 | 130 | 1.7 | 3.5 | 0.00 | 0.00 | 0.00 | 31 | 1014.0 |
| 20260503183216 | 70 | 150 | 1.7 | 3.5 | 0.00 | 0.00 | 0.00 | 28 | 1013.8 |
| 20260503182214 | 70 | 114 | 1.7 | 3.5 | 0.00 | 0.00 | 0.00 | 28 | 1013.7 |
| 20260503181213 | 71 | 210 | 1.7 | 4.3 | 0.00 | 0.00 | 0.00 | 28 | 1013.5 |
| 20260503180230 | 71 | 219 | 2.6 | 5.2 | 0.00 | 0.00 | 0.00 | 30 | 1013.4 |
| 20260503175208 | 71 | 198 | 2.6 | 6.1 | 0.00 | 0.00 | 0.00 | 29 | 1013.4 |
| 20260503174206 | 72 | 219 | 1.7 | 4.3 | 0.00 | 0.00 | 0.00 | 31 | 1013.4 |
| 20260503173224 | 72 | 216 | 1.7 | 4.3 | 0.00 | 0.00 | 0.00 | 33 | 1013.3 |
| 20260503172202 | 72 | 143 | 1.7 | 3.5 | 0.00 | 0.00 | 0.00 | 31 | 1013.3 |
| 20260503171200 | 72 | 137 | 1.7 | 4.3 | 0.00 | 0.00 | 0.00 | 32 | 1013.2 |
| 20260503170159 | 73 | 222 | 1.7 | 4.3 | 0.00 | 0.00 | 0.00 | 33 | 1013.2 |
| 20260503160147 | 75 | 310 | 0.9 | 3.5 | 0.00 | 0.00 | 0.00 | 30 | 1012.9 |
| 20260503150134 | 75 | 329 | 0.9 | 2.6 | 0.00 | 0.00 | 0.00 | 35 | 1012.9 |
| 20260503140122 | 75 | 309 | 1.7 | 3.5 | 0.00 | 0.00 | 0.00 | 33 | 1013.3 |